Jefferson, GA

3:18 PM EDT on September 19, 2017 (GMT -0400)
Jefferson

Weather History for K19A - April, 2014

Change the Weather History Date:

Wednesday, April 9, 2014

  Actual Average (KWDR) Record (KWDR)
Temperature  
Mean Temperature 58 °F -  
Max Temperature 69 °F 71 °F 88 °F (1965)
Min Temperature 48 °F 43 °F 28 °F (1964)
Degree Days  
Heating Degree Days 6    
Growing Degree Days 8 (Base 50)    
Moisture  
Dew Point 22 °F    
Average Humidity 33    
Maximum Humidity 62    
Minimum Humidity 4    
Precipitation  
Precipitation 0.00 in - - ()
Sea Level Pressure  
Sea Level Pressure 29.97 in    
Wind  
Wind Speed 6 mph (NW)    
Max Wind Speed 16 mph    
Max Gust Speed 25 mph    
Visibility 10 miles    
Events      
Averages and records for this station are not official NWS values.
T = Trace of Precipitation, MM = Missing Value Source: NWS Daily Summary

Daily Weather History Graph

Daily Weather History Graph

Search for Another Location

Airport or City:

Trip Planner

Search our weather history database for the weather conditions in past years. The results will help you decide how hot, cold, wet, or windy it might be!

Date:

Astronomy

Apr. 09, 2014 Rise Set
Actual Time 7:10 AM EDT 8:01 PM EDT
Civil Twilight 6:45 AM EDT 8:26 PM EDT
Nautical Twilight 6:15 AM EDT 8:56 PM EDT
Astronomical Twilight 5:44 AM EDT 9:28 PM EDT
Moon 3:01 PM EDT (4/9) 3:45 AM EDT (4/9)
Length of Visible Light 13h 41m
Length of Day
12h 50m
Waxing Gibbous, 71% of the Moon is Illuminated
Apr 9
Waxing Gibbous
Apr 15
Full
Apr 22
Last Quarter
Apr 29
New
May 6
First Quarter

Hourly Weather History & Observations

Time (EDT) Temp. Dew Point Humidity Pressure Visibility Wind Dir Wind Speed Gust Speed Precip Events Conditions
12:15 AM 50.0 °F 32.0 °F 50% 29.79 in 10.0 mi Calm Calm - N/A   Clear
12:35 AM 50.0 °F 32.0 °F 50% 29.80 in 10.0 mi NNW 3.5 mph - N/A   Clear
12:55 AM 50.0 °F 32.0 °F 50% 29.80 in 10.0 mi Calm Calm - N/A   Clear
1:15 AM 48.2 °F 32.0 °F 54% 29.81 in 10.0 mi NW 4.6 mph - N/A   Mostly Cloudy
1:35 AM 50.0 °F 32.0 °F 50% 29.81 in 10.0 mi NW 4.6 mph - N/A   Overcast
1:55 AM 50.0 °F 32.0 °F 50% 29.81 in 10.0 mi NW 6.9 mph - N/A   Mostly Cloudy
2:15 AM 51.8 °F 32.0 °F 47% 29.81 in 10.0 mi NW 9.2 mph - N/A   Overcast
2:35 AM 51.8 °F 32.0 °F 47% 29.82 in 10.0 mi NNW 4.6 mph - N/A   Overcast
2:55 AM 51.8 °F 33.8 °F 50% 29.81 in 10.0 mi NW 6.9 mph - N/A   Overcast
3:15 AM 51.8 °F 33.8 °F 50% 29.81 in 10.0 mi NW 10.4 mph - N/A   Overcast
3:35 AM 53.6 °F 33.8 °F 47% 29.82 in 10.0 mi NW 6.9 mph - N/A   Overcast
3:55 AM 53.6 °F 33.8 °F 47% 29.82 in 10.0 mi NW 9.2 mph - N/A   Overcast
4:15 AM 53.6 °F 33.8 °F 47% 29.82 in 10.0 mi NW 8.1 mph - N/A   Overcast
4:35 AM 53.6 °F 33.8 °F 47% 29.83 in 10.0 mi WNW 6.9 mph - N/A   Overcast
4:55 AM 51.8 °F 35.6 °F 54% 29.84 in 10.0 mi WNW 6.9 mph - N/A   Overcast
5:15 AM 51.8 °F 33.8 °F 50% 29.85 in 10.0 mi WNW 8.1 mph - N/A   Overcast
5:35 AM 50.0 °F 35.6 °F 58% 29.86 in 10.0 mi WNW 6.9 mph - N/A   Mostly Cloudy
5:55 AM 50.0 °F 35.6 °F 58% 29.86 in 10.0 mi WNW 5.8 mph - N/A   Mostly Cloudy
6:15 AM 50.0 °F 35.6 °F 58% 29.87 in 10.0 mi WNW 4.6 mph - N/A   Scattered Clouds
6:35 AM 48.2 °F 35.6 °F 62% 29.88 in 10.0 mi WNW 4.6 mph - N/A   Clear
6:55 AM 48.2 °F 35.6 °F 62% 29.89 in 10.0 mi WNW 4.6 mph - N/A   Clear
7:15 AM 48.2 °F 35.6 °F 62% 29.91 in 10.0 mi NW 6.9 mph - N/A   Clear
7:35 AM 50.0 °F 35.6 °F 58% 29.92 in 10.0 mi WNW 8.1 mph - N/A   Clear
7:55 AM 50.0 °F 35.6 °F 58% 29.92 in 10.0 mi WNW 6.9 mph - N/A   Clear
8:15 AM 50.0 °F 37.4 °F 62% 29.94 in 10.0 mi WNW 8.1 mph - N/A   Clear
8:35 AM 51.8 °F 35.6 °F 54% 29.94 in 10.0 mi WNW 8.1 mph - N/A   Clear
8:55 AM 51.8 °F 35.6 °F 54% 29.96 in 10.0 mi WNW 8.1 mph - N/A   Clear
9:15 AM 53.6 °F 35.6 °F 51% 29.96 in 10.0 mi NW 6.9 mph - N/A   Clear
9:35 AM 55.4 °F 35.6 °F 47% 29.97 in 10.0 mi NW 5.8 mph - N/A   Clear
9:55 AM 57.2 °F 33.8 °F 41% 29.97 in 10.0 mi NW 9.2 mph 16.1 mph N/A   Clear
10:15 AM 59.0 °F 33.8 °F 39% 29.98 in 10.0 mi NW 10.4 mph 18.4 mph N/A   Clear
10:35 AM 59.0 °F 32.0 °F 36% 30.00 in 10.0 mi NW 13.8 mph 18.4 mph N/A   Clear
10:55 AM 60.8 °F 32.0 °F 34% 30.01 in 10.0 mi NW 16.1 mph 20.7 mph N/A   Clear
11:15 AM 60.8 °F 30.2 °F 31% 30.02 in 10.0 mi NNW 12.7 mph 18.4 mph N/A   Clear
11:55 AM 62.6 °F 30.2 °F 30% 30.03 in 10.0 mi NW 5.8 mph - N/A   Scattered Clouds
12:15 PM 62.6 °F 26.6 °F 26% 30.03 in 10.0 mi NW 5.8 mph - N/A   Scattered Clouds
12:35 PM 64.4 °F 24.8 °F 22% 30.02 in 10.0 mi WNW 12.7 mph - N/A   Scattered Clouds
12:55 PM 64.4 °F 21.2 °F 19% 30.02 in 10.0 mi NW 11.5 mph 19.6 mph N/A   Mostly Cloudy
1:15 PM 64.4 °F 21.2 °F 19% 30.02 in 10.0 mi NNW 8.1 mph 18.4 mph N/A   Mostly Cloudy
1:35 PM 64.4 °F 17.6 °F 16% 30.02 in 10.0 mi NW 15.0 mph 19.6 mph N/A   Mostly Cloudy
1:55 PM 66.2 °F 15.8 °F 14% 30.03 in 10.0 mi NNW 6.9 mph 23.0 mph N/A   Scattered Clouds
2:15 PM 68.0 °F 10.4 °F 11% 30.03 in - WNW 15.0 mph 25.3 mph N/A   Clear
2:35 PM 66.2 °F 12.2 °F 12% 30.03 in 10.0 mi NW 6.9 mph 20.7 mph N/A   Scattered Clouds
2:55 PM 68.0 °F 12.2 °F 12% 30.03 in 10.0 mi NW 11.5 mph 20.7 mph N/A   Scattered Clouds
3:15 PM 68.0 °F 8.6 °F 10% 30.02 in 10.0 mi North 4.6 mph 19.6 mph N/A   Scattered Clouds
3:55 PM 68.0 °F 5.0 °F 8% 30.02 in 10.0 mi WNW 11.5 mph 21.9 mph N/A   Clear
4:15 PM 68.0 °F 5.0 °F 8% 30.02 in 10.0 mi NNW 8.1 mph 18.4 mph N/A   Clear
4:35 PM 68.0 °F 1.4 °F 7% 30.02 in 10.0 mi WNW 5.8 mph - N/A   Clear
4:55 PM 69.8 °F -4.0 °F 5% 30.01 in 10.0 mi NW 16.1 mph - N/A   Clear
5:15 PM 69.8 °F -5.8 °F 5% 30.02 in 10.0 mi NW 12.7 mph 17.3 mph N/A   Clear
5:35 PM 69.8 °F -5.8 °F 5% 30.02 in 10.0 mi WNW 8.1 mph 17.3 mph N/A   Clear
5:55 PM 68.0 °F -13.0 °F 4% 30.03 in 10.0 mi WNW 13.8 mph - N/A   Clear
6:15 PM 68.0 °F -20.2 °F 4% 30.03 in 10.0 mi NW 12.7 mph 23.0 mph N/A   Clear
6:35 PM 68.0 °F -18.4 °F 4% 30.04 in 10.0 mi NNW 8.1 mph - N/A   Clear
6:55 PM 68.0 °F -9.4 °F 4% 30.04 in 10.0 mi NW 6.9 mph - N/A   Clear
7:15 PM 66.2 °F -4.0 °F 6% 30.05 in 10.0 mi NW 8.1 mph - N/A   Clear
7:35 PM 64.4 °F 5.0 °F 10% 30.06 in 10.0 mi NW 6.9 mph - N/A   Clear
7:55 PM 62.6 °F 14.0 °F 15% 30.06 in 10.0 mi WNW 5.8 mph - N/A   Clear
8:15 PM 60.8 °F 17.6 °F 19% 30.07 in 10.0 mi WNW 5.8 mph - N/A   Clear
8:35 PM 59.0 °F 21.2 °F 23% 30.08 in 10.0 mi WNW 3.5 mph - N/A   Clear
8:55 PM 59.0 °F 21.2 °F 23% 30.09 in 10.0 mi WNW 4.6 mph - N/A   Clear
9:15 PM 55.4 °F 23.0 °F 29% 30.10 in 10.0 mi West 4.6 mph - N/A   Clear
9:35 PM 55.4 °F 23.0 °F 29% 30.11 in 10.0 mi WNW 4.6 mph - N/A   Clear
9:55 PM 55.4 °F 24.8 °F 31% 30.12 in 10.0 mi WNW 6.9 mph - N/A   Clear
10:15 PM 59.0 °F 19.4 °F 22% 30.13 in 10.0 mi WNW 3.5 mph - N/A   Clear
10:35 PM 55.4 °F 23.0 °F 29% 30.14 in 10.0 mi Calm Calm - N/A   Clear
10:55 PM 53.6 °F 23.0 °F 30% 30.14 in 10.0 mi Calm Calm - N/A   Clear
11:15 PM 53.6 °F 23.0 °F 30% 30.14 in 10.0 mi Calm Calm - N/A   Clear
11:35 PM 53.6 °F 23.0 °F 30% 30.14 in 10.0 mi Calm Calm - N/A   Clear
11:55 PM 53.6 °F 24.8 °F 33% 30.15 in 10.0 mi Calm Calm - N/A   Clear